FW7881 Weather Reports


Display with metric or nautical units.
time (UTC)temp
F
wind
direction
speed
MPH
gust
MPH
rain 1hr
in
rain 24hr
in
rain mn
in
humidity
%
barometer
mb
20260509004600 68 0 1.0 7.0 0.00 0.00 0.00 27 1001.2
20260509003050 68 257 0.0 6.0 0.00 0.00 0.00 27 1001.0
20260509001546 69 0 1.0 8.0 0.00 0.00 0.00 26 1001.0
20260509000051 69 0 2.0 14.0 0.00 0.00 0.00 26 1001.0
20260508234550 71 2 3.0 14.0 0.00 0.00 0.00 25 1000.9
20260508233050 71 288 1.0 10.0 0.00 0.00 0.00 27 1001.1
20260508231557 71 0 0.0 11.0 0.00 0.00 0.00 27 1001.1
20260508230051 71 0 2.0 11.0 0.00 0.00 0.00 26 1001.1
20260508224609 71 264 1.0 11.0 0.00 0.00 0.00 27 1001.2
20260508223052 71 0 2.0 9.0 0.00 0.00 0.00 27 1001.2
20260508221557 69 0 0.0 3.0 0.00 0.00 0.00 28 1001.3
20260508220049 70 276 0.0 9.0 0.00 0.00 0.00 27 1001.5
20260508214553 70 0 1.0 10.0 0.00 0.00 0.00 27 1001.6
20260508213045 71 294 0.0 7.0 0.00 0.00 0.00 26 1001.6
20260508211553 70 278 0.0 9.0 0.00 0.00 0.00 26 1001.9
20260508210043 69 0 0.0 6.0 0.00 0.00 0.00 26 1002.1
20260508204548 69 248 0.0 8.0 0.00 0.00 0.00 26 1002.4
20260508203048 69 0 3.0 10.0 0.00 0.00 0.00 25 1002.6
20260508201545 68 232 2.0 10.0 0.00 0.00 0.00 26 1002.8
20260508200053 68 206 1.0 7.0 0.00 0.00 0.00 26 1003.1
20260508194551 69 226 1.0 15.0 0.00 0.00 0.00 26 1003.3
20260508193102 68 284 3.0 11.0 0.00 0.00 0.00 25 1003.7
20260508191545 70 276 0.0 5.0 0.00 0.00 0.00 25 1003.8
20260508190053 69 271 1.0 10.0 0.00 0.00 0.00 25 1003.8
20260508184555 69 282 1.0 11.0 0.00 0.00 0.00 27 1003.9
20260508183111 68 241 5.0 13.0 0.00 0.00 0.00 25 1004.0
20260508181605 68 284 3.0 11.0 0.00 0.00 0.00 24 1004.2
20260508180049 67 277 2.0 12.0 0.00 0.00 0.00 25 1004.5
20260508174551 67 256 2.0 11.0 0.00 0.00 0.00 25 1004.9
20260508173046 67 0 1.0 13.0 0.00 0.00 0.00 26 1005.1
20260508171553 66 252 1.0 10.0 0.00 0.00 0.00 26 1005.5
20260508170049 66 293 2.0 11.0 0.00 0.00 0.00 25 1005.9
20260508164547 65 0 1.0 7.0 0.00 0.00 0.00 27 1006.0
20260508163049 64 0 0.0 8.0 0.00 0.00 0.00 34 1006.2
20260508161545 61 155 0.0 2.0 0.00 0.00 0.00 36 1006.4
20260508160047 60 269 0.0 5.0 0.00 0.00 0.00 37 1006.7
20260508154550 59 0 0.0 5.0 0.00 0.00 0.00 38 1006.8
20260508153048 58 238 1.0 5.0 0.00 0.00 0.00 38 1007.0
20260508151549 57 281 0.0 6.0 0.00 0.00 0.00 39 1007.1
20260508150119 57 243 0.0 5.0 0.00 0.00 0.00 39 1007.2
20260508144601 56 0 0.0 3.0 0.00 0.00 0.00 42 1007.2
20260508143053 55 269 0.0 4.0 0.00 0.00 0.00 42 1007.3
20260508141602 54 0 0.0 6.0 0.00 0.00 0.00 44 1007.4
20260508140056 53 0 0.0 4.0 0.00 0.00 0.00 43 1007.5
20260508134552 52 0 0.0 5.0 0.00 0.00 0.00 43 1007.6
20260508133056 52 0 0.0 1.0 0.00 0.00 0.00 45 1007.7
20260508131555 51 0 0.0 6.0 0.00 0.00 0.00 46 1007.6
20260508130052 49 0 0.0 3.0 0.00 0.00 0.00 48 1007.8
20260508124559 48 0 0.0 0.0 0.00 0.00 0.00 49 1007.8
20260508123052 46 0 0.0 1.0 0.00 0.00 0.00 50 1007.7
20260508121549 45 0 0.0 0.0 0.00 0.00 0.00 52 1007.7
20260508120056 43 0 0.0 0.0 0.00 0.00 0.00 54 1007.5
20260508114548 42 0 0.0 0.0 0.00 0.00 0.00 55 1007.7
20260508113123 42 0 0.0 0.0 0.00 0.00 0.00 55 1007.6
20260508111546 41 0 0.0 0.0 0.00 0.00 0.00 58 1007.6
20260508110045 40 0 0.0 0.0 0.00 0.00 0.00 59 1007.7
20260508104555 40 0 0.0 0.0 0.00 0.00 0.00 61 1007.6
20260508103057 40 0 0.0 0.0 0.00 0.00 0.00 59 1007.7
20260508101549 41 0 0.0 0.0 0.00 0.00 0.00 57 1007.6
20260508100048 40 0 0.0 0.0 0.00 0.00 0.00 60 1007.7
20260508094549 39 0 0.0 0.0 0.00 0.00 0.00 65 1007.7
20260508093050 39 0 0.0 0.0 0.00 0.00 0.00 67 1007.8
20260508091549 40 0 0.0 0.0 0.00 0.00 0.00 69 1007.8
20260508090051 39 0 0.0 0.0 0.00 0.00 0.00 70 1007.8
20260508084548 39 0 0.0 0.0 0.00 0.00 0.00 67 1007.8
20260508083046 40 0 0.0 0.0 0.00 0.00 0.00 66 1007.8
20260508081601 40 0 0.0 0.0 0.00 0.00 0.00 66 1007.9
20260508080049 39 0 0.0 0.0 0.00 0.00 0.00 68 1008.0
20260508074550 40 0 0.0 0.0 0.00 0.00 0.00 67 1008.1
20260508073104 39 0 0.0 0.0 0.00 0.00 0.00 71 1008.1
20260508071546 40 0 0.0 0.0 0.00 0.00 0.00 69 1008.4
20260508064604 42 0 0.0 0.0 0.00 0.00 0.00 69 1008.5
20260508063049 42 0 0.0 0.0 0.00 0.00 0.00 64 1008.7
20260508061559 42 0 0.0 0.0 0.00 0.00 0.00 65 1008.7
20260508060050 41 0 0.0 0.0 0.00 0.00 0.00 66 1008.8
20260508054615 41 0 0.0 0.0 0.00 0.00 0.00 64 1008.9
20260508053049 42 0 0.0 0.0 0.00 0.00 0.00 63 1009.0
20260508051547 43 0 0.0 0.0 0.00 0.00 0.00 59 1009.0
20260508050054 44 0 0.0 0.0 0.00 0.00 0.00 57 1008.9
20260508044547 44 0 0.0 0.0 0.00 0.00 0.00 58 1009.1
20260508043055 44 0 0.0 0.0 0.00 0.00 0.00 57 1009.2
20260508041551 45 0 0.0 0.0 0.00 0.00 0.00 54 1009.2
20260508034551 47 0 0.0 0.0 0.00 0.00 0.00 52 1009.4
20260508033051 46 0 0.0 0.0 0.00 0.00 0.00 52 1009.4
20260508031602 46 0 0.0 0.0 0.00 0.00 0.00 52 1009.4
20260508030049 47 0 0.0 0.0 0.00 0.00 0.00 49 1009.5
20260508024550 48 0 0.0 0.0 0.00 0.00 0.00 48 1009.5
20260508023048 49 0 0.0 0.0 0.00 0.00 0.00 49 1009.5
20260508021545 50 0 0.0 0.0 0.00 0.00 0.00 45 1009.4
20260508020050 50 0 0.0 0.0 0.00 0.00 0.00 44 1009.2
20260508014547 51 0 0.0 0.0 0.00 0.00 0.00 37 1009.1
20260508013051 52 0 0.0 0.0 0.00 0.00 0.00 36 1009.1
20260508011551 54 0 0.0 0.0 0.00 0.00 0.00 36 1009.1
20260508010054 55 0 0.0 0.0 0.00 0.00 0.00 32 1009.0